Regional Weather Roundup
Issued by NWS Little Rock, AR

Home | Current Version | Previous Version | Text Only | Print | Product List | Glossary On
Versions: 1 2 3 4 5 6 7 8 9 10 11 12 13 14 15 16 17 18 19 20 21 22 23 24 25 26 27 28 29 30 31 32 33 34 35 36 37 38 39 40 41 42 43 44 45 46 47 48 49 50
000
ASUS44 KLZK 191405
RWRLZK

WEATHER ROUNDUP FOR ARKANSAS
NATIONAL WEATHER SERVICE LITTLE ROCK AR
900 AM CDT SUN APR 19 2015

NOTE: "FAIR" INDICATES FEW OR NO CLOUDS BELOW 12,000 FEET WITH NO
SIGNIFICANT WEATHER AND/OR OBSTRUCTIONS TO VISIBILITY.

ARZ001-003-010-029-191500-
NORTHWEST ARKANSAS

CITY           SKY/WX    TMP DP  RH WIND       PRES   REMARKS
FAYETTEVILLE   CLOUDY    56  54  93 CALM      29.73R
FORT SMITH     CLOUDY    61  56  83 SW7       29.72S
HARRISON       PTSUNNY   57  55  93 W5        29.70R
BENTONVILLE    CLOUDY    57  50  77 S5        29.73R
ROGERS         CLOUDY    57  51  80 S5        29.73R
SILOAM SPGS    CLOUDY    55  48  76 SE3       29.74S
HIGHFILL       CLOUDY    56  52  86 CALM      29.72R
SPRINGDALE     MOSUNNY   57  54  88 CALM      29.74R
$$

ARZ004-005-016-191500-
NORTH CENTRAL ARKANSAS

CITY           SKY/WX    TMP DP  RH WIND       PRES   REMARKS
BATESVILLE     PTSUNNY   63  61  94 W6        29.67F
FLIPPIN        PTSUNNY   63 N/A N/A CALM      29.65F
MTN HOME       PTSUNNY   64  58  80 VRB5      29.66F
$$

ARZ040-041-191500-
WEST CENTRAL ARKANSAS

CITY           SKY/WX    TMP DP  RH WIND       PRES   REMARKS
MENA           MOSUNNY   63  59  88 W7        29.74R
MOUNT IDA      CLOUDY    60  57  89 CALM      29.69S
$$

ARZ009-017-025-026-028-191500-
NORTHEAST ARKANSAS

CITY           SKY/WX    TMP DP  RH WIND       PRES   REMARKS
CORNING          N/A     66  66 100 SW13      29.63F
JONESBORO      CLOUDY    67  64  90 W7        29.64F
NEWPORT        PTSUNNY   69  64  84 W9        29.67F
WALNUT RIDGE   MOSUNNY   66  61  82 W9        29.64S
BLYTHEVILLE    LGT RAIN  66  66 100 SW7       29.63F
$$

ARZ022-023-033-042-044-191500-
CENTRAL ARKANSAS

CITY           SKY/WX    TMP DP  RH WIND       PRES   REMARKS
LITTLE ROCK    CLOUDY    65  61  87 W12       29.71R
N LITTLE ROCK  PTSUNNY   64  63  98 W6        29.71R
JACKSONVILLE   CLOUDY    65  64  99 SW7       29.68F
SEARCY         CLOUDY    65  62  90 CALM      29.69F
HOT SPRINGS    CLOUDY    61  58  90 S5        29.70F
RUSSELLVILLE   CLOUDY    63  59  87 CALM      29.69S
CLINTON        FAIR      64  61  88 CALM      29.69S
$$

ARZ036-191500-
EAST ARKANSAS

CITY           SKY/WX    TMP DP  RH WIND       PRES   REMARKS
WEST MEMPHIS   LGT RAIN  64  64 100 NW3       29.62F FOG
$$

ARZ050-053-066-070-073-191500-
SOUTHWEST ARKANSAS

CITY           SKY/WX    TMP DP  RH WIND       PRES   REMARKS
ARKADELPHIA    FAIR      64  62  93 CALM      29.71F
CAMDEN         MOSUNNY   64  55  72 N3        29.72F
TEXARKANA      SUNNY     62  58  86 SW7       29.77R
EL DORADO      SUNNY     64  59  83 VRB3      29.75F
DE QUEEN       SUNNY     62  59  90 SW7       29.73R
$$

ARZ056-057-069-191500-
SOUTHEAST ARKANSAS

CITY           SKY/WX    TMP DP  RH WIND       PRES   REMARKS
PINE BLUFF     CLOUDY    64  62  93 W9        29.71R
STUTTGART      CLOUDY    64  63  94 W13       29.68F
MONTICELLO     HVY RAIN  64  63  96 NW14G22   29.72R VSB 3/4

$$




USA.gov is the U.S. government's official web portal to all federal, state and local government web resources and services.